Home > Weather > Bernau bei Berlin > Past weeks

Flag for Germany Weather for the Past 2 Weeks in Bernau bei Berlin, Brandenburg, Germany

Now
46 °F

Passing clouds.


Feels Like: 45 °F
Forecast: 43 / 65 °F
Wind: 3 mph from North

Location: Berlin-Tegel

Current Time: May 5, 2016 at 1:52:48 AM

Latest Report: May 5, 2016 at 1:20 AM


Visibility: N/A

Pressure: 30.39 "Hg

Humidity: 66%

Dew Point: 36 °F

Location of Bernau bei BerlinLocation

Historic Weather in Bernau bei Berlin — Graph

°F

Bernau bei Berlin Temperature Yesterday

Maximum temperature yesterday: 57 °F (at 1:50 PM)
Minimum temperature yesterday: 45 °F (at 5:50 AM)
Average temperature yesterday: 51 °F

High & Low Weather Summary for the Past Weeks

 TemperatureHumidityPressure
High68 °F (May 3, 4:20 PM)93% (Apr 21, 6:50 AM)30.39 "Hg (Apr 21, 6:50 AM)
Low32 °F (Apr 29, 5:50 AM)26% (Apr 30, 5:20 PM)29.45 "Hg (Apr 26, 5:50 AM)
Average48 °F60%29.99 "Hg
* Reported Apr 20 12:20 AM — May 5 12:50 AM, Bernau bei Berlin, Weather by CustomWeather, © 2016

Note: Actual official high and low records may vary slightly from our data, if they occured in-between our weather recording intervals... More about our weather records

Advertising

Bernau bei Berlin Weather History for the Previous 24 Hours

Scroll right to see more
 ConditionsComfort  
Time TempWeatherWind HumidityBarometerVisibility
12:50 AM
Thu, May 5
48 °FPassing clouds.3 mph58%30.39 "HgN/A
12:20 AM48 °FClear.3 mph58%30.39 "Hg10 mi
11:50 PM
Wed, May 4
48 °FClear.2 mph58%30.39 "Hg10 mi
11:20 PM50 °FPassing clouds.3 mph58%30.39 "HgN/A
10:50 PM50 °FPassing clouds.3 mph58%30.36 "HgN/A
10:20 PM52 °FPassing clouds.3 mph50%30.36 "HgN/A
9:50 PM52 °FClear.3 mph50%30.36 "Hg10 mi
9:20 PM54 °FPassing clouds.3 mph47%30.36 "HgN/A
8:50 PM55 °FPassing clouds.3 mph44%30.33 "HgN/A
8:20 PM57 °FPassing clouds.6 mph41%30.33 "HgN/A
7:50 PM57 °FPassing clouds.8 mph39%30.33 "HgN/A
7:20 PM57 °FPassing clouds.7 mph39%30.33 "HgN/A
6:50 PM57 °FPassing clouds.8 mph39%30.33 "HgN/A
6:20 PM57 °FPassing clouds.8 mph41%30.33 "HgN/A
5:50 PM57 °FPassing clouds.8 mph41%30.33 "HgN/A
5:20 PM57 °FScattered clouds.9 mph48%30.33 "HgN/A
4:50 PM57 °FScattered clouds.10 mph44%30.33 "HgN/A
4:20 PM55 °FScattered clouds.12 mph51%30.33 "HgN/A
3:50 PM55 °FScattered clouds.13 mph51%30.33 "HgN/A
3:20 PM57 °FScattered clouds.12 mph51%30.33 "HgN/A
2:50 PM55 °FPartly sunny.10 mph55%30.33 "HgN/A
2:20 PM55 °FPartly sunny.8 mph44%30.33 "HgN/A
1:50 PM57 °FBroken clouds.9 mph51%30.33 "HgN/A
1:20 PM54 °FBroken clouds.9 mph54%30.33 "HgN/A
12:50 PM52 °FPartly sunny.9 mph67%30.33 "HgN/A
12:20 PM52 °FPartly sunny.9 mph72%30.33 "HgN/A
11:50 AM50 °FPartly sunny.8 mph76%30.33 "HgN/A
11:20 AM48 °FBroken clouds.7 mph82%30.33 "HgN/A
10:50 AM48 °FPartly sunny.7 mph82%30.33 "HgN/A
10:20 AM48 °FPartly sunny.7 mph82%30.33 "HgN/A
9:50 AM46 °FBroken clouds.7 mph82%30.33 "HgN/A
9:20 AM46 °FPartly sunny.7 mph87%30.33 "HgN/A
8:50 AM46 °FLight rain. Partly sunny.6 mph82%30.30 "HgN/A
8:20 AM46 °FLight rain. Partly sunny.8 mph82%30.30 "HgN/A
7:50 AM45 °FLight rain. Partly sunny.8 mph87%30.30 "HgN/A
7:20 AM45 °FPartly sunny.7 mph87%30.27 "HgN/A
6:50 AM45 °FPartly sunny.7 mph87%30.27 "HgN/A
6:20 AM45 °FLight rain. Partly cloudy.7 mph87%30.27 "HgN/A
5:50 AM45 °FLight rain. Partly cloudy.9 mph87%30.27 "HgN/A
5:20 AM46 °FLight rain. Partly cloudy.10 mph82%30.24 "HgN/A
4:50 AM46 °FLight rain. Partly cloudy.9 mph82%30.24 "HgN/A
4:20 AM46 °FLight rain. Passing clouds.9 mph82%30.24 "HgN/A
3:50 AM46 °FLight rain. Passing clouds.13 mph82%30.24 "HgN/A
3:20 AM48 °FPassing clouds.13 mph76%30.21 "HgN/A
2:50 AM48 °FPassing clouds.13 mph76%30.21 "HgN/A
2:20 AM50 °FPassing clouds.13 mph71%30.21 "HgN/A
1:50 AM50 °FPassing clouds.10 mph76%30.21 "HgN/A
1:20 AM50 °FPassing clouds.10 mph76%30.21 "HgN/A
Weather by CustomWeather, © 2016

See weather overviewHow to use our weather pages